Regional Weather Roundup
Issued by NWS Upton, NY

Current Version | Previous Version | Text Only | Print | Product List | Glossary On
Versions: 1 2 3 4 5 6 7 8 9 10 11 12 13 14 15 16 17 18 19 20 21 22 23 24 25 26 27 28 29 30 31 32 33 34 35 36 37 38 39 40 41 42 43 44 45 46 47 48 49 50
000
ASUS41 KOKX 252207
RWROKX

REGIONAL WEATHER ROUNDUP
NATIONAL WEATHER SERVICE NEW YORK NY
600 PM EDT SAT APR 25 2015

NOTE: "FAIR" INDICATES FEW OR NO CLOUDS BELOW 12,000 FEET WITH NO
SIGNIFICANT WEATHER AND/OR OBSTRUCTIONS TO VISIBILITY.

NYZ071-072-176-178-NJZ106-104-252300-
NEW YORK CITY METRO AREA


CITY           SKY/WX    TMP DP  RH WIND       PRES   REMARKS
CENTRAL PARK   PTSUNNY   60  20  21 VRB5      29.72S
LAGUARDIA APRT PTSUNNY   59  22  24 W9        29.69F
KENNEDY INTL   PTSUNNY   51  34  52 S17       29.72S
NEWARK/LIBERTY PTSUNNY   61  22  22 W3        29.69F
BRNX BOT. GARD   N/A     59  23  25 N7        29.71R
TETERBORO      PTSUNNY   59  25  27 NW10      29.68F
$$

NYZ177-179-078>081-252300-
LONG ISLAND NEW YORK

CITY           SKY/WX    TMP DP  RH WIND       PRES   REMARKS
FARMINGDALE    PTSUNNY   52  29  41 SW12      29.71S
ISLIP          PTSUNNY   51  31  46 SW14      29.70S
SHIRLEY        MOSUNNY   51  33  50 SW10      29.72S
WESTHAMPTON    SUNNY     49  32  52 SW13G18   29.72F
MONTAUK POINT    N/A     53  32  44 SW9       29.71F
$$

NYZ052-065-067-252300-
HUDSON VALLEY

CITY           SKY/WX    TMP DP  RH WIND       PRES   REMARKS
WHITE PLAINS   MOSUNNY   57  24  28 NW9       29.68F
NEWBURGH       MOSUNNY   57  27  30 W9        29.69F
MONTGOMERY     SUNNY     58  26  29 W7        29.68F
POUGHKEEPSIE   SUNNY     59  24  26 CALM      29.68F
ALBANY         PTSUNNY   54  28  36 W13       29.72S
$$

NJZ001-105-106-008-010-013-015-019>022-104-252300-
NEW JERSEY

CITY           SKY/WX    TMP DP  RH WIND       PRES   REMARKS
NEWARK/LIBERTY PTSUNNY   61  22  22 W3        29.69F
TETERBORO      PTSUNNY   59  25  27 NW10      29.68F
CALDWELL       PTSUNNY   59  21  23 NW8       29.70S
MORRISTOWN     MOSUNNY   59  21  23 W3        29.70F
SOMERVILLE     SUNNY     60  24  25 VRB5      29.68F
SUSSEX         MOSUNNY   57  22  25 CALM      29.70S
ANDOVER          N/A     58  21  24 VRB5      29.69F
TRENTON        MOSUNNY   58  23  26 W10       29.71F
MILLVILLE      PTSUNNY   53  27  36 SW9       29.75F
ATLANTIC CITY  MOSUNNY   54  24  31 W10       29.75F
WRIGHTSTOWN    MOSUNNY   55  24  29 NW8       29.70F
TOMS RIVER     MOSUNNY   55  23  28 CALM      29.72F
BELMAR         MOSUNNY   57  25  28 W12       29.72S
$$

PAZ047>061-062-071-252300-
EASTERN PENNSYLVANIA

CITY           SKY/WX    TMP DP  RH WIND       PRES   REMARKS
PHILADELPHIA   PTSUNNY   57  24  28 SW13      29.74F
ALLENTOWN      MOSUNNY   57  25  29 VRB5      29.71S
SCRANTON       MOSUNNY   55  23  28 NW8       29.71F
$$

CTZ002-004>006-009-010-012-RIZ004-006-007-MAZ004-011-015-252300-
SOUTHERN NEW ENGLAND
 IN CT

CITY           SKY/WX    TMP DP  RH WIND       PRES   REMARKS
BRADLEY INTL   MOSUNNY   56  25  30 N9        29.69R
HARTFORD       PTSUNNY   57  24  28 VRB5      29.69S
DANBURY        SUNNY     56  23  27 N9G20     29.69F
WTRBRY/OXFORD  MOSUNNY   55  27  33 N9G18     29.69S
BRIDGEPORT     SUNNY     55  33  43 SW10      29.69F
MERIDEN        SUNNY     59  22  24 NW15G21   29.69S
NEW HAVEN      MOSUNNY   54  33  45 SW6       29.68F
CHESTER        FAIR      55  23  28 NW6G17    29.68F
GROTON         MOSUNNY   52  30  43 SW10      29.68S
WILLIMANTIC    SUNNY     57  25  29 NW9G21    29.68S

 IN RI

CITY           SKY/WX    TMP DP  RH WIND       PRES   REMARKS
PROVIDENCE     PTSUNNY   57  23  26 N13       29.67S
BLOCK ISLAND   SUNNY     46  34  61 SW17      29.69F
WESTERLY       MOSUNNY   51  31  46 SW10G22   29.69S

 IN MA

CITY           SKY/WX    TMP DP  RH WIND       PRES   REMARKS
BOSTON         PTSUNNY   49  31  49 E9        29.69R
WORCESTER      CLOUDY    51  23  33 NW8       29.68R
WESTFIELD      PTSUNNY   56  25  30 N9        29.69S
PROVINCETOWN   CLOUDY   N/A N/A N/A S7        29.69S
NANTUCKET      CLOUDY    45  33  63 SW14      29.72S
$$

ANZ330-335-338-340-345-350-353-355-252300-
COASTAL MARINE OBSERVATIONS


STATION/POSITION TIME  SKY/WX   TEMP    WIND        PRES    VSBY  WAVE
                                AIR SEA DIR/SP/G                  HT/PER
                 (UTC)          (F)     (DEG/KT/KT) (MB)    (MI)  (FT/S)
NY HARB ENTRANCE 2150            46 46  190/ 16/ 17 1005.9          1/11
4S FIRE IS       2103               44                N/A           2/ 4
20S FIRE ISLAND  2150            44 43  220/ 14/ 17 1006.9          1/ 3
23SW MTP         2050                                 N/A           3/ 5
HUDSON CANYON    NOT AVBL
EXECUTION ROCKS  NOT AVBL
WESTERN LI SOUND NOT AVBL
CENTRAL LI SOUND NOT AVBL
EASTERN LI SOUND 2100            47     250/ 16/ 19   N/A
ROBBINS REEF     2100            56     220/  5/  8 1004.7
$$


>>>>>>>>>>>>>>>>>>>>>>>>>>>> KEY <<<<<<<<<<<<<<<<<<<<<<<<<<<
>                                                          <
>     SKY/WX - SKY CONDITION/PRESENT WEATHER               <
>     TMP    - TEMPERATURE IN FAHRENHEIT                   <
>     DP     - DEWPOINT IN FAHRENHEIT                      <
>     RH     - RELATIVE HUMIDITY IN PERCENT                <
>     WIND   - DIRECTION AND SPEED IN MPH                  <
>     PRES   - MEAN SEA LEVEL PRESSURE IN INCHES OF HG     <
>     WCI    - WIND CHILL INDEX                            <
>     VSB    - VISIBILITY IN MILES                         <
>     HX     - HEAT INDEX                                  <
>     TC     - TEMPERATURE IN CELSIUS                      <
>     VRB    - VARIABLE WIND DIRECTION                     <
>                                                          <
>>>>>>>>>>>>>>>>>>>>>>>>>>>> KEY <<<<<<<<<<<<<<<<<<<<<<<<<<<




USA.gov is the U.S. government's official web portal to all federal, state and local government web resources and services.